Wind_Speed
24 23 23 22 22 23 23 23 23 23 24 25 25 25 24 24 24 25 25 25 25 24 24 24 24 24 25 25 25 25 25 24 24 25 25 26 26 27 27 28 28 28
25 26 25 24 23 23 23 23 22 22 23 24 25 25 25 24 23 23 23 23 24 24 24 23 24 24 24 25 26 26 26 26 25 25 25 26 26 27 27 28 28 29
25 26 26 26 25 24 24 23 22 22 23 24 24 25 25 25 24 23 22 22 22 22 22 23 23 23 23 24 25 25 26 26 26 26 26 26 27 27 28 28 29 29
25 26 27 27 26 26 25 24 23 22 22 23 24 25 26 26 25 24 23 22 22 22 22 23 24 24 24 24 25 26 26 27 27 28 28 28 29 29 29 30 30 31
24 25 26 26 26 26 26 26 25 24 23 24 24 25 26 26 26 26 25 24 24 24 24 25 25 26 26 27 27 27 28 28 29 30 31 31 31 32 32 32 33 33
24 23 24 24 24 25 25 25 25 25 24 25 25 26 26 26 26 27 26 26 26 26 26 27 27 28 28 29 29 29 29 30 30 31 32 33 33 34 35 35 35 36
25 25 24 23 22 22 22 22 22 22 22 23 25 26 27 28 28 28 27 27 27 27 28 29 29 29 30 30 31 31 32 32 32 32 33 34 34 35 36 37 37 38
28 26 25 24 22 21 22 22 22 21 21 21 22 24 25 26 26 26 26 26 26 26 27 29 30 31 31 31 32 32 32 33 33 34 35 35 36 36 37 38 38 39
31 29 27 25 24 23 24 24 24 24 23 23 23 24 24 24 23 23 23 23 23 23 24 26 28 30 31 31 31 31 31 32 33 34 35 36 37 38 39 39 40 41
34 32 30 28 27 27 27 27 27 28 27 27 26 25 25 25 25 25 24 24 24 24 24 25 26 27 29 30 30 31 31 32 33 34 34 36 37 38 39 40 41 42
35 34 33 31 30 31 31 31 32 32 32 32 31 29 28 28 28 28 26 26 26 26 27 27 27 28 29 30 31 32 33 34 34 34 35 35 36 37 38 38 39 39
36 35 34 33 34 35 35 35 36 35 34 33 34 33 32 31 31 31 30 30 30 30 30 30 31 31 31 32 32 33 34 34 35 35 35 36 36 36 37 36 36 36
37 37 36 36 36 38 38 38 38 37 36 36 37 38 38 38 36 35 35 34 34 34 34 34 34 34 34 34 35 35 35 36 36 36 36 36 36 36 37 37 36 35
38 38 38 38 38 39 41 40 39 38 40 42 43 44 44 44 42 40 39 39 37 37 38 37 37 36 36 36 37 37 36 37 38 39 38 37 37 37 37 38 37 36
40 41 41 41 41 42 43 42 42 43 44 44 46 49 49 47 44 43 42 42 40 40 41 42 40 39 37 37 38 38 38 39 40 41 41 40 39 39 39 39 39 39
45 44 44 44 44 45 45 45 46 47 46 45 46 50 53 52 49 47 45 42 41 41 41 40 38 38 37 38 39 40 41 42 43 43 43 42 41 41 41 41 41 41
49 49 48 47 47 47 48 49 50 50 49 48 47 49 53 53 52 50 49 46 45 44 41 39 38 40 42 42 42 42 43 44 46 47 45 43 43 43 43 43 43 42
52 52 52 51 50 50 50 52 54 53 53 53 52 52 54 55 54 52 51 49 48 45 45 46 46 45 45 44 44 44 44 45 46 46 46 45 44 44 44 45 44 43
55 55 55 54 53 52 53 54 55 55 55 55 55 55 56 57 56 54 53 52 51 49 50 51 50 46 46 47 47 46 46 46 45 45 45 45 45 45 45 46 45 44
58 57 57 56 55 54 54 55 56 56 56 56 56 56 56 56 56 55 54 53 53 53 52 51 50 49 50 51 50 48 47 46 47 46 45 45 45 45 45 45 45 44
59 59 58 58 58 57 56 56 56 57 57 57 57 57 56 55 55 55 54 53 53 54 54 54 54 54 54 51 51 50 48 47 47 47 47 47 45 44 43 44 44 44
60 60 59 59 59 58 58 58 58 58 58 58 58 59 58 57 56 56 56 56 56 56 57 57 57 57 54 53 53 52 50 49 49 49 47 45 43 42 43 44 45 46
60 60 59 59 59 59 59 60 60 60 59 58 57 57 56 55 54 54 55 56 56 55 55 55 56 56 56 56 56 55 53 52 50 47 44 42 42 42 44 45 46 48
58 58 59 59 60 60 61 61 62 62 61 59 57 57 56 55 54 53 52 53 53 54 54 55 55 55 55 57 57 56 55 53 48 42 40 41 43 45 46 47 49 50
57 57 58 59 59 60 60 61 62 62 62 60 59 58 55 53 51 49 48 49 51 52 53 53 52 53 53 54 55 55 54 52 47 42 41 43 45 47 49 50 52 53
58 58 59 59 60 60 60 61 61 62 61 58 54 52 50 48 47 46 46 47 49 49 49 49 49 50 50 50 51 50 51 51 50 47 46 47 48 49 51 52 54 55
Wind_Direction
274 274 273 271 270 267 265 263 263 264 266 268 270 271 271 271 271 271 271 271 270 267 263 259 257 255 256 256 257 257 256 256 255 254 253 254 254 255 255 256 256 255
272 273 273 273 272 270 268 265 264 264 266 268 269 270 271 271 270 269 269 270 271 272 271 268 264 261 259 258 258 258 259 259 258 257 256 255 255 256 256 256 256 256
271 271 271 271 271 272 271 268 266 265 266 266 268 269 271 271 270 268 266 266 267 268 270 270 270 268 266 264 262 261 262 263 263 263 261 260 259 258 258 258 258 257
270 271 271 271 271 270 270 269 267 267 266 265 266 267 269 271 272 271 269 266 265 265 266 267 268 268 268 267 266 264 264 265 265 266 266 266 265 264 264 263 263 262
270 271 271 272 272 271 270 268 267 266 265 265 265 265 266 268 270 271 272 271 270 268 267 267 267 268 268 267 267 266 266 266 266 266 267 267 268 268 268 268 268 268
269 270 271 272 272 272 270 269 267 266 264 263 263 263 263 264 265 267 270 271 272 272 271 270 269 269 269 270 270 270 270 269 269 268 268 268 268 268 268 269 269 269
266 266 268 270 270 269 268 268 268 267 265 264 262 261 260 260 260 261 263 266 268 270 271 271 272 271 271 271 271 272 272 272 272 272 271 270 269 269 269 269 269 269
266 263 263 263 264 265 265 266 267 267 267 265 263 261 260 259 258 257 258 261 263 266 269 270 271 272 272 272 272 273 273 274 274 274 274 274 272 271 270 269 269 269
266 264 263 261 261 263 265 267 268 268 268 267 265 263 260 258 256 254 253 255 257 261 265 268 270 271 271 271 271 271 272 274 275 276 276 276 275 274 273 272 271 270
263 264 263 262 263 264 265 267 270 272 272 271 269 266 265 264 261 257 255 256 258 259 261 263 265 267 268 268 269 270 273 275 277 279 278 277 276 275 275 274 274 273
261 263 265 267 268 267 265 267 272 275 275 273 270 267 268 269 268 266 264 264 266 266 264 263 262 262 264 266 268 270 274 276 278 280 279 278 277 276 275 275 274 274
263 266 268 270 270 268 267 269 272 275 275 274 271 268 268 269 269 268 268 270 273 272 270 268 266 264 263 264 267 270 273 275 277 279 279 278 277 277 275 275 274 274
264 267 269 269 269 270 272 273 274 275 275 274 273 270 269 271 270 267 268 272 274 275 274 272 269 268 268 267 268 270 273 274 276 278 280 280 279 278 276 274 273 272
263 265 267 268 268 269 271 272 275 276 275 274 274 273 270 270 270 269 270 274 277 276 275 272 269 269 271 271 270 270 272 274 276 278 280 281 280 278 276 274 272 271
262 264 265 266 266 266 268 271 274 274 271 269 271 272 272 272 272 272 273 276 278 277 273 270 268 268 271 273 272 271 272 273 275 277 279 281 281 278 276 274 273 272
262 262 263 264 265 266 268 269 269 269 267 265 266 268 271 273 273 273 274 273 276 277 274 269 267 268 273 276 276 275 275 275 274 275 276 279 280 278 276 273 272 272
262 262 262 262 263 264 265 264 264 265 265 265 264 265 269 271 272 274 273 272 274 276 272 269 270 273 276 278 277 275 276 278 276 273 272 275 278 277 274 271 270 270
263 263 263 262 262 262 262 262 263 264 264 264 264 264 266 269 271 273 273 274 274 272 270 270 273 277 278 276 276 275 275 278 278 273 270 273 275 274 272 269 268 268
265 264 264 263 262 261 261 262 262 263 263 264 265 265 266 268 270 272 272 273 273 272 272 271 270 276 281 276 275 276 275 276 278 274 270 272 273 272 269 267 266 267
266 266 265 264 263 262 261 261 262 263 264 265 265 266 267 267 269 271 272 272 272 272 273 270 266 274 282 278 275 277 276 275 276 275 272 272 272 270 268 266 267 269
264 264 265 265 264 264 263 261 262 263 264 265 266 266 267 267 268 270 271 271 271 270 272 271 270 274 279 277 275 277 277 277 277 275 275 274 272 268 265 265 268 271
264 264 264 265 265 265 265 264 264 264 264 266 268 269 270 270 270 270 271 271 271 271 271 272 272 273 274 273 274 276 278 280 280 277 276 274 270 267 266 268 271 273
262 263 264 264 265 265 265 266 266 266 266 268 269 270 272 272 271 271 271 272 272 272 273 273 272 272 271 271 273 275 278 281 280 276 273 270 267 268 271 273 275 277
260 261 261 262 262 263 264 264 265 266 266 266 265 266 269 272 274 274 274 273 273 274 275 276 275 274 273 273 274 275 277 279 276 270 266 266 266 269 274 277 279 281
261 261 261 261 260 260 261 262 262 263 264 264 265 266 268 271 273 274 272 271 272 274 276 278 279 278 277 276 275 275 275 274 271 265 264 267 269 272 276 279 281 282
262 262 261 261 261 260 260 260 260 260 261 262 262 263 266 269 270 269 269 271 273 275 277 279 279 279 277 275 274 274 273 271 267 264 265 270 274 278 280 281 282 282
Height
5728 5728 5729 5730 5731 5731 5732 5732 5732 5732 5732 5733 5733 5734 5735 5736 5736 5737 5737 5737 5738 5739 5740 5741 5742 5743 5743 5744 5745 5745 5746 5747 5748 5749 5749 5750 5750 5751 5752 5752 5753 5754
5726 5726 5726 5727 5728 5729 5730 5730 5730 5730 5730 5730 5731 5731 5732 5733 5734 5735 5735 5735 5735 5736 5736 5737 5738 5739 5740 5741 5741 5742 5743 5744 5744 5745 5746 5747 5747 5748 5748 5749 5750 5751
5724 5724 5724 5725 5726 5726 5727 5728 5728 5728 5728 5728 5728 5728 5729 5730 5731 5732 5733 5733 5734 5734 5734 5734 5735 5736 5737 5737 5738 5739 5740 5740 5741 5742 5742 5743 5744 5744 5745 5745 5746 5747
5721 5721 5722 5722 5723 5724 5725 5725 5725 5726 5726 5726 5726 5726 5726 5727 5728 5729 5729 5730 5731 5732 5732 5732 5733 5733 5734 5735 5735 5736 5737 5737 5738 5738 5739 5739 5740 5740 5741 5741 5742 5742
5719 5719 5719 5720 5720 5721 5722 5722 5722 5723 5724 5724 5724 5724 5724 5724 5725 5725 5726 5727 5728 5728 5729 5729 5730 5730 5731 5732 5732 5733 5734 5735 5735 5735 5736 5736 5736 5737 5737 5737 5738 5738
5716 5716 5717 5717 5717 5718 5718 5719 5719 5720 5720 5721 5721 5721 5722 5722 5722 5722 5723 5724 5724 5725 5725 5726 5726 5727 5728 5728 5729 5729 5730 5731 5731 5732 5732 5733 5733 5733 5733 5734 5734 5734
5712 5713 5714 5714 5715 5715 5715 5716 5716 5717 5717 5717 5718 5718 5718 5719 5719 5719 5720 5720 5721 5721 5722 5722 5722 5723 5724 5724 5725 5725 5725 5726 5727 5727 5728 5728 5729 5729 5729 5730 5729 5729
5708 5709 5710 5711 5711 5712 5712 5712 5713 5713 5714 5714 5714 5714 5714 5715 5715 5716 5716 5717 5717 5718 5718 5718 5719 5719 5720 5720 5720 5721 5721 5721 5722 5722 5722 5723 5723 5724 5725 5725 5725 5725
5704 5705 5706 5707 5708 5708 5709 5709 5709 5710 5710 5711 5711 5711 5711 5711 5711 5712 5712 5713 5713 5714 5714 5715 5715 5716 5716 5716 5717 5717 5717 5717 5717 5717 5717 5717 5717 5718 5718 5719 5719 5720
5700 5701 5702 5703 5704 5705 5705 5706 5706 5706 5707 5707 5708 5708 5708 5708 5708 5709 5709 5709 5710 5710 5710 5711 5711 5712 5712 5713 5713 5713 5713 5713 5713 5713 5712 5712 5712 5712 5712 5712 5713 5713
5697 5697 5698 5699 5700 5700 5701 5701 5702 5702 5702 5703 5703 5704 5704 5705 5705 5705 5706 5706 5706 5706 5706 5707 5707 5708 5708 5709 5709 5709 5709 5709 5708 5708 5708 5707 5707 5707 5707 5707 5707 5707
5693 5693 5694 5696 5696 5695 5695 5696 5697 5697 5698 5698 5699 5699 5700 5701 5701 5702 5702 5702 5702 5702 5703 5703 5703 5703 5703 5704 5704 5704 5704 5704 5704 5703 5703 5703 5703 5702 5702 5702 5702 5702
5689 5689 5690 5691 5691 5691 5691 5692 5693 5693 5693 5693 5693 5694 5694 5695 5696 5697 5697 5698 5698 5698 5698 5698 5698 5698 5699 5699 5699 5699 5699 5699 5699 5699 5699 5698 5698 5698 5698 5697 5697 5697
5684 5684 5685 5686 5687 5687 5686 5686 5688 5689 5688 5687 5686 5686 5687 5689 5690 5691 5692 5693 5693 5693 5693 5692 5693 5693 5693 5693 5693 5693 5693 5693 5693 5693 5693 5693 5693 5693 5693 5693 5692 5692
5678 5679 5680 5680 5681 5681 5681 5682 5684 5683 5683 5682 5681 5680 5680 5681 5684 5685 5686 5687 5687 5687 5686 5686 5687 5687 5688 5687 5687 5687 5687 5687 5687 5687 5688 5688 5688 5688 5687 5687 5687 5687
5672 5673 5674 5674 5675 5675 5676 5677 5677 5676 5676 5676 5676 5675 5673 5674 5677 5678 5680 5681 5681 5681 5680 5680 5681 5681 5681 5681 5681 5681 5681 5681 5681 5681 5681 5681 5682 5682 5682 5681 5681 5681
5665 5666 5667 5668 5668 5669 5670 5669 5667 5667 5669 5670 5670 5669 5667 5667 5669 5670 5672 5673 5674 5675 5675 5675 5675 5675 5674 5674 5674 5674 5674 5674 5674 5674 5674 5675 5675 5675 5675 5675 5675 5675
5657 5658 5658 5660 5661 5662 5662 5661 5659 5660 5661 5662 5663 5663 5661 5661 5662 5663 5665 5666 5666 5667 5668 5669 5669 5668 5668 5668 5667 5667 5667 5667 5667 5667 5667 5668 5668 5668 5668 5668 5668 5668
5648 5649 5650 5651 5653 5654 5654 5653 5652 5653 5653 5654 5655 5655 5655 5655 5656 5657 5658 5658 5659 5659 5660 5661 5662 5661 5661 5661 5661 5661 5660 5660 5660 5660 5660 5660 5660 5660 5660 5661 5661 5661
5639 5640 5641 5642 5644 5645 5646 5646 5645 5645 5646 5647 5647 5648 5649 5650 5650 5650 5651 5651 5651 5651 5652 5653 5654 5654 5654 5654 5654 5654 5653 5653 5653 5653 5653 5653 5653 5653 5653 5653 5654 5654
5631 5632 5633 5634 5635 5636 5638 5639 5639 5638 5638 5639 5640 5640 5642 5642 5643 5643 5643 5643 5643 5644 5645 5646 5646 5646 5646 5647 5647 5647 5646 5646 5646 5646 5647 5646 5646 5645 5646 5646 5647 5647
5623 5624 5625 5626 5627 5627 5628 5629 5630 5630 5630 5631 5631 5632 5633 5634 5635 5635 5635 5635 5635 5636 5637 5637 5638 5639 5639 5639 5639 5639 5639 5640 5639 5640 5640 5639 5639 5639 5639 5639 5639 5638
5615 5616 5617 5618 5619 5619 5620 5620 5620 5621 5622 5623 5623 5623 5624 5625 5626 5627 5628 5628 5628 5628 5629 5629 5630 5630 5631 5631 5631 5632 5632 5632 5632 5632 5632 5632 5632 5632 5632 5632 5631 5630
5607 5608 5609 5610 5611 5612 5612 5612 5613 5613 5615 5616 5617 5617 5616 5617 5618 5620 5621 5621 5621 5621 5621 5621 5622 5622 5623 5623 5623 5624 5625 5625 5624 5624 5625 5625 5625 5625 5625 5624 5623 5622
5599 5600 5601 5601 5602 5604 5605 5605 5605 5606 5607 5609 5610 5610 5611 5611 5612 5613 5614 5614 5615 5615 5615 5614 5614 5615 5615 5615 5616 5616 5617 5617 5617 5617 5617 5617 5618 5618 5617 5616 5615 5613
5591 5591 5592 5593 5594 5595 5596 5596 5597 5598 5600 5602 5604 5604 5605 5605 5605 5606 5606 5607 5608 5608 5608 5608 5608 5608 5608 5608 5609 5609 5609 5609 5609 5609 5609 5610 5610 5609 5609 5608 5606 5604